Flag for Madagascar Weather past 2 weeks in Antananarivo, Madagascar

Now
72 °F

Scattered clouds.


Feels Like: 76 °F
Forecast: 48 / 79 °F
Wind: 9 mph from East

Location: Antananarivo / Ivato

Current Time: Sep 19, 2014 at 5:09:55 PM

Latest Report: Sep 19, 2014 at 4:30 PM


Visibility: N/A

Pressure: 30.24 "Hg

Humidity: 57%

Dew point: 55 °F

Location of AntananarivoLocation

Historic Weather in Antananarivo — Graph

°F

Antananarivo temperature yesterday

Maximum temperature yesterday: 73 °F (at 1:30 PM)
Minimum temperature yesterday: 54 °F (at 12:00 AM)
Average temperature yesterday: 62 °F

Past Weeks' High & Low Weather Summary

 TemperatureHumidityPressure
High84 °F (Sep 13, 1:30 PM)100% (Sep 4, 11:30 PM)30.42 "Hg (Sep 4, 11:30 PM)
Low43 °F (Sep 14, 5:00 AM)16% (Sep 14, 12:00 PM)30.15 "Hg (Sep 17, 1:30 PM)
Average61 °F82%30.31 "Hg
* Reported Sep 4 4:00 PM — Sep 19 4:00 PM, Antananarivo, Weather by CustomWeather, © 2014

Note: Actual official high and low records may vary slightly from our data, if they occured in-between our weather recording intervals... More about our weather records

Advertising

Antananarivo weather history for previous 24 hours

 ConditionsComfort  
Time TempWeatherWind HumidityBarometerVisibility
4:00 PM
Sep 19
72 °FPartly sunny.12 mph57%30.24 "HgN/A
3:30 PM72 °FPartly sunny.13 mph57%30.24 "HgN/A
3:00 PM72 °FScattered clouds.12 mph57%30.24 "HgN/A
2:30 PM73 °FScattered clouds.13 mph53%30.24 "HgN/A
2:00 PM73 °FPartly sunny.14 mph53%30.24 "HgN/A
1:30 PM72 °FPartly sunny.10 mph57%30.24 "HgN/A
1:00 PM73 °FPartly sunny.14 mph57%30.24 "HgN/A
12:30 PM72 °FPartly sunny.14 mph61%30.27 "HgN/A
12:00 PM72 °FPartly sunny.14 mph57%30.27 "HgN/A
11:30 AM70 °FPartly sunny.13 mph60%30.30 "HgN/A
11:00 AM70 °FPartly sunny.12 mph64%30.30 "HgN/A
10:30 AM68 °FPartly sunny.14 mph64%30.33 "HgN/A
10:00 AM68 °FPartly sunny.15 mph69%30.33 "HgN/A
9:30 AM66 °FScattered clouds.15 mph73%30.36 "HgN/A
9:00 AM64 °FPartly sunny.10 mph73%30.33 "HgN/A
8:30 AM63 °FScattered clouds.14 mph77%30.33 "HgN/A
8:00 AM61 °FPassing clouds.14 mph83%30.33 "HgN/A
7:30 AM59 °FPassing clouds.7 mph94%30.33 "HgN/A
7:00 AM55 °FPassing clouds.5 mph100%30.33 "HgN/A
6:30 AM54 °FPassing clouds.3 mph100%30.30 "Hg6 mi
6:00 AM48 °FPassing clouds.No wind100%30.30 "Hg6 mi
5:30 AM48 °FPassing clouds.2 mph100%30.30 "HgN/A
5:00 AM50 °FPassing clouds.5 mph100%30.27 "HgN/A
4:00 AM50 °FPassing clouds.3 mph100%30.27 "HgN/A
3:30 AM48 °FPassing clouds.No wind100%30.27 "HgN/A
3:00 AM48 °FPassing clouds.No wind100%30.27 "HgN/A
2:30 AM50 °FPassing clouds.1 mph100%30.27 "HgN/A
2:00 AM52 °FPassing clouds.1 mph100%30.27 "HgN/A
1:30 AM52 °FPassing clouds.5 mph100%30.27 "HgN/A
1:00 AM52 °FPassing clouds.5 mph100%30.30 "HgN/A
12:30 AM54 °FPassing clouds.6 mph94%30.30 "HgN/A
12:00 AM54 °FPassing clouds.5 mph100%30.30 "HgN/A
11:30 PM
Sep 18
54 °FPassing clouds.7 mph100%30.30 "HgN/A
11:00 PM55 °FPassing clouds.8 mph100%30.30 "HgN/A
10:30 PM55 °FPassing clouds.7 mph100%30.30 "HgN/A
10:00 PM57 °FPassing clouds.6 mph94%30.30 "HgN/A
9:30 PM55 °FPassing clouds.6 mph100%30.30 "HgN/A
9:00 PM57 °FPassing clouds.9 mph100%30.30 "HgN/A
8:30 PM57 °FPassing clouds.10 mph94%30.30 "HgN/A
8:00 PM59 °FPassing clouds.13 mph88%30.30 "HgN/A
7:30 PM61 °FPassing clouds.8 mph77%30.30 "HgN/A
7:00 PM61 °FPassing clouds.8 mph77%30.27 "HgN/A
6:30 PM61 °FPassing clouds.7 mph77%30.27 "HgN/A
6:00 PM64 °FPassing clouds.8 mph68%30.24 "HgN/A
5:30 PM66 °FPassing clouds.10 mph64%30.24 "HgN/A
5:00 PM70 °FPassing clouds.10 mph57%30.24 "HgN/A
Weather by CustomWeather, © 2014

See weather overviewHow to use our weather pages